Location: Arroyo Retuerta
(40.5469°N, 4.3534°W)
Time: 11:37:09
(UTC+00:00)

ERS-1 Rocket - Pass Details

Date: 01 June 2020
Orbit: 753 x 757 km, 98.5° (Epoch: 05 July)

Event Time Altitude Azimuth Distance (km) Brightness Sun altitude
Exits shadow 21:59:39 37° 171° (S) 1,155 3.4 -19.7°
Maximum altitude 22:01:40 84° 257° (WSW) 766 2.9 -20.0°
Drops below altitude 10° 22:06:44 10° 345° (NNW) 2,293 6.5 -20.5°
Sets 22:09:03 0° 347° (NNW) 3,223 7.5 -20.7°
